DW1653 Weather Reports


Display with metric or nautical units.
time (UTC)temp
F
wind
direction
speed
MPH
gust
MPH
rain 1hr
in
rain 24hr
in
rain mn
in
humidity
%
barometer
mb
20260906112322 69 52 2.0 6.0 0.00 0.00 0.00 85 1013.7
20260906111816 68 32 2.0 6.0 0.00 0.00 0.00 85 1013.7
20260906111328 68 81 2.0 6.0 0.00 0.00 0.00 85 1013.7
20260906110840 68 52 3.0 6.0 0.00 0.00 0.00 85 1013.6
20260906110334 68 69 2.0 7.0 0.00 0.00 0.00 85 1013.5
20260906105825 68 57 2.0 7.0 0.00 0.00 0.00 85 1013.4
20260906105317 68 55 1.0 5.0 0.00 0.00 0.00 85 1013.4
20260906104829 68 59 2.0 5.0 0.00 0.00 0.00 85 1013.4
20260906104320 68 63 1.0 4.0 0.00 0.00 0.00 85 1013.3
20260906103832 68 64 1.0 7.0 0.00 0.00 0.00 85 1013.2
20260906103323 68 79 2.0 7.0 0.00 0.00 0.00 85 1013.2
20260906102817 68 56 2.0 4.0 0.00 0.00 0.00 85 1013.2
20260906102313 68 46 1.0 4.0 0.00 0.00 0.00 85 1013.1
20260906101828 68 59 1.0 5.0 0.00 0.00 0.00 85 1013.1
20260906101321 68 51 2.0 6.0 0.00 0.00 0.00 85 1013.0
20260906100811 68 25 2.0 6.0 0.00 0.00 0.00 85 1012.9
20260906100326 68 331 4.0 6.0 0.00 0.00 0.00 85 1012.9
20260906095817 68 360 2.0 7.0 0.00 0.00 0.00 85 1012.8
20260906095329 68 42 3.0 7.0 0.00 0.00 0.00 85 1012.8
20260906094820 68 10 3.0 7.0 0.00 0.00 0.00 85 1012.8
20260906094315 68 18 3.0 7.0 0.00 0.00 0.00 85 1012.7
20260906093828 68 339 3.0 7.0 0.00 0.00 0.00 85 1012.7
20260906093319 68 27 2.0 8.0 0.00 0.00 0.00 85 1012.6
20260906092831 68 55 3.0 8.0 0.00 0.00 0.00 85 1012.5
20260906092342 68 67 3.0 8.0 0.00 0.00 0.00 85 1012.4
20260906091832 68 42 4.0 7.0 0.00 0.00 0.00 85 1012.4
20260906091324 68 81 3.0 6.0 0.00 0.00 0.00 86 1012.4
20260906090839 68 13 3.0 7.0 0.00 0.00 0.00 86 1012.3
20260906090328 68 30 3.0 10.0 0.00 0.00 0.00 86 1012.2
20260906085824 68 78 4.0 10.0 0.00 0.00 0.00 87 1012.2
20260906085316 68 55 5.0 10.0 0.00 0.00 0.00 87 1012.1
20260906084827 68 67 3.0 11.0 0.00 0.00 0.00 88 1012.1
20260906084339 68 53 5.0 11.0 0.00 0.00 0.00 88 1012.2
20260906083849 68 46 5.0 11.0 0.00 0.00 0.00 88 1012.1
20260906083323 68 78 4.0 11.0 0.00 0.00 0.00 88 1012.1
20260906082838 67 11 6.0 11.0 0.00 0.00 0.00 88 1012.0
20260906082328 67 355 5.0 8.0 0.00 0.00 0.00 88 1011.8
20260906081821 68 330 4.0 8.0 0.00 0.00 0.00 88 1011.7
20260906081332 68 315 3.0 7.0 0.00 0.00 0.00 87 1011.7
20260906080844 68 339 2.0 4.0 0.00 0.00 0.00 87 1011.7
20260906080319 68 338 1.0 4.0 0.00 0.00 0.00 87 1011.7
20260906075829 68 323 3.0 6.0 0.00 0.00 0.00 87 1011.6
20260906075324 68 346 1.0 6.0 0.00 0.00 0.00 87 1011.5
20260906074816 68 329 2.0 6.0 0.00 0.00 0.00 87 1011.4
20260906074327 68 336 4.0 6.0 0.00 0.00 0.00 87 1011.4
20260906073818 68 339 2.0 9.0 0.00 0.00 0.00 87 1011.4
20260906073351 68 9 4.0 9.0 0.00 0.00 0.00 87 1011.5
20260906072841 68 355 4.0 7.0 0.00 0.00 0.00 86 1011.4
20260906072332 68 355 4.0 6.0 0.00 0.00 0.00 86 1011.5
20260906071827 69 327 4.0 6.0 0.00 0.00 0.00 86 1011.4
20260906071319 69 346 2.0 6.0 0.00 0.00 0.00 86 1011.6
20260906070831 69 317 2.0 4.0 0.00 0.00 0.00 86 1011.6
20260906070323 69 345 2.0 5.0 0.00 0.00 0.00 86 1011.5
20260906065854 69 334 3.0 6.0 0.00 0.00 0.00 86 1011.5
20260906065324 69 326 3.0 6.0 0.00 0.00 0.00 85 1011.4
20260906064816 69 16 3.0 5.0 0.00 0.00 0.00 85 1011.4
20260906064327 69 9 3.0 5.0 0.00 0.00 0.00 85 1011.5
20260906063818 68 344 4.0 5.0 0.00 0.00 0.00 84 1011.6
20260906063333 68 321 2.0 5.0 0.00 0.00 0.00 83 1011.6
20260906062825 68 337 2.0 4.0 0.00 0.00 0.00 83 1011.6
20260906062317 69 340 1.0 3.0 0.00 0.00 0.00 82 1011.7
20260906061828 69 313 0.0 1.0 0.00 0.00 0.00 81 1011.7
20260906061322 69 313 0.0 2.0 0.00 0.00 0.00 81 1011.7
20260906060834 69 313 1.0 2.0 0.00 0.00 0.00 81 1011.9
20260906060324 69 339 0.0 2.0 0.00 0.00 0.00 80 1011.9
20260906055815 69 339 0.0 3.0 0.00 0.00 0.00 80 1011.9
20260906055347 69 326 1.0 3.0 0.00 0.00 0.00 80 1011.9
20260906054822 69 302 0.0 3.0 0.00 0.00 0.00 79 1012.0
20260906054333 69 331 1.0 2.0 0.00 0.00 0.00 79 1012.0
20260906053845 69 331 1.0 2.0 0.00 0.00 0.00 79 1012.0
20260906053316 69 346 1.0 2.0 0.00 0.00 0.00 78 1012.0
20260906052827 69 330 1.0 4.0 0.00 0.00 0.00 78 1012.0
20260906052318 70 319 2.0 4.0 0.00 0.00 0.00 78 1012.1
20260906051830 70 304 2.0 4.0 0.00 0.00 0.00 78 1012.1
20260906051321 70 355 2.0 4.0 0.00 0.00 0.00 78 1012.2
20260906050853 70 335 2.0 4.0 0.00 0.00 0.00 78 1012.2
20260906050327 70 315 2.0 4.0 0.00 0.00 0.00 77 1012.2
20260906045817 70 341 3.0 4.0 0.00 0.00 0.00 77 1012.2
20260906045350 70 327 2.0 4.0 0.00 0.00 0.00 77 1012.3
20260906044820 70 330 2.0 5.0 0.00 0.00 0.00 77 1012.3
20260906044331 70 329 3.0 5.0 0.00 0.00 0.00 77 1012.2
20260906043842 70 337 3.0 5.0 0.00 0.00 0.00 77 1012.3
20260906043316 70 326 2.0 4.0 0.00 0.00 0.00 77 1012.2
20260906042827 70 20 2.0 6.0 0.00 0.00 0.00 77 1012.2
20260906042318 70 335 2.0 6.0 0.00 0.00 0.00 77 1012.3
20260906041830 70 333 2.0 4.0 0.00 0.00 0.00 77 1012.3
20260906041325 70 355 2.0 5.0 0.00 0.00 0.00 77 1012.2
20260906040820 70 348 2.0 5.0 0.00 0.00 0.00 77 1012.3
20260906040330 70 331 1.0 4.0 0.00 0.00 0.00 77 1012.3
20260906035822 70 348 2.0 4.0 0.00 0.00 0.00 77 1012.3
20260906035333 70 349 2.0 6.0 0.00 0.00 0.00 77 1012.2
20260906034844 70 355 2.0 6.0 0.00 0.00 0.00 77 1012.3
20260906034315 70 5 2.0 4.0 0.00 0.00 0.00 77 1012.2
20260906033826 70 360 1.0 4.0 0.00 0.00 0.00 77 1012.2
20260906033324 70 5 1.0 2.0 0.00 0.00 0.00 77 1012.2
20260906032816 70 331 1.0 3.0 0.00 0.00 0.00 77 1012.1
20260906032348 70 11 2.0 4.0 0.00 0.00 0.00 77 1012.0
20260906031841 70 345 1.0 4.0 0.00 0.00 0.00 77 1012.1
20260906031312 70 334 1.0 4.0 0.00 0.00 0.00 77 1012.0
20260906030826 70 355 3.0 4.0 0.00 0.00 0.00 77 1011.9
20260906030321 70 355 2.0 4.0 0.00 0.00 0.00 77 1011.9
20260906025832 70 360 1.0 4.0 0.00 0.00 0.00 77 1011.9
20260906025324 70 342 2.0 5.0 0.00 0.00 0.00 76 1012.0
20260906024836 70 5 2.0 5.0 0.00 0.00 0.00 76 1012.1
20260906024330 70 5 1.0 3.0 0.00 0.00 0.00 76 1012.1
20260906023822 71 317 1.0 3.0 0.00 0.00 0.00 76 1012.0
20260906023334 71 336 2.0 3.0 0.00 0.00 0.00 76 1011.9
20260906022825 71 330 1.0 3.0 0.00 0.00 0.00 76 1011.9
20260906022317 71 329 2.0 3.0 0.00 0.00 0.00 76 1011.8
20260906021829 71 355 1.0 4.0 0.00 0.00 0.00 76 1011.8
20260906021319 71 321 1.0 4.0 0.00 0.00 0.00 76 1011.8
20260906020831 71 347 1.0 3.0 0.00 0.00 0.00 77 1011.8
20260906020327 71 340 0.0 3.0 0.00 0.00 0.00 76 1011.8
20260906015821 71 316 0.0 2.0 0.00 0.00 0.00 76 1011.7
20260906015333 72 266 0.0 1.0 0.00 0.00 0.00 76 1011.7
20260906014844 72 267 0.0 1.0 0.00 0.00 0.00 76 1011.7
20260906014334 72 267 0.0 1.0 0.00 0.00 0.00 76 1011.6
20260906013845 72 267 0.0 1.0 0.00 0.00 0.00 75 1011.6
20260906013335 72 267 1.0 1.0 0.00 0.00 0.00 75 1011.6
20260906012826 72 267 0.0 1.0 0.00 0.00 0.00 75 1011.6
20260906012321 72 267 1.0 2.0 0.00 0.00 0.00 74 1011.5
20260906011832 72 266 1.0 2.0 0.00 0.00 0.00 74 1011.5
20260906011326 72 267 0.0 2.0 0.00 0.00 0.00 74 1011.6
20260906010838 73 267 1.0 3.0 0.00 0.00 0.00 74 1011.5
20260906010331 73 267 1.0 3.0 0.00 0.00 0.00 73 1011.4
20260906005823 73 267 0.0 2.0 0.00 0.00 0.00 73 1011.4
20260906005316 73 266 1.0 2.0 0.00 0.00 0.00 73 1011.3
20260906004828 73 267 1.0 2.0 0.00 0.00 0.00 72 1011.2
20260906004319 73 267 0.0 1.0 0.00 0.00 0.00 72 1011.1
20260906003851 73 267 0.0 2.0 0.00 0.00 0.00 72 1011.1
20260906003320 73 267 1.0 3.0 0.00 0.00 0.00 71 1011.1
20260906002815 74 180 1.0 2.0 0.00 0.00 0.00 71 1011.1
20260906002327 74 180 1.0 2.0 0.00 0.00 0.00 70 1011.0
20260906001818 74 180 1.0 1.0 0.00 0.00 0.00 70 1010.8
20260906001330 74 180 0.0 1.0 0.00 0.00 0.00 69 1010.9
20260906000844 75 180 0.0 0.0 0.00 0.00 0.00 69 1010.8
20260906000334 75 180 0.0 0.0 0.00 0.00 0.00 68 1010.7
20260905235826 75 180 0.0 0.0 0.00 0.00 0.00 68 1010.7
20260905235318 75 180 0.0 1.0 0.00 0.00 0.00 68 1010.5
20260905234830 75 180 0.0 1.0 0.00 0.00 0.00 67 1010.6
20260905234328 76 180 0.0 1.0 0.00 0.00 0.00 66 1010.6
20260905233819 76 180 0.0 1.0 0.00 0.00 0.00 66 1010.6
20260905233331 76 180 1.0 1.0 0.00 0.00 0.00 66 1010.5
20260905232822 76 180 0.0 2.0 0.00 0.00 0.00 66 1010.5
20260905232313 76 180 1.0 2.0 0.00 0.00 0.00 65 1010.5
20260905231846 76 180 1.0 2.0 0.00 0.00 0.00 65 1010.4
20260905231320 76 180 0.0 1.0 0.00 0.00 0.00 66 1010.6
20260905230831 76 180 0.0 1.0 0.00 0.00 0.00 66 1010.6
20260905230343 76 180 0.0 1.0 0.00 0.00 0.00 65 1010.6
20260905225854 76 180 0.0 2.0 0.00 0.00 0.00 65 1010.6
20260905225344 77 180 1.0 2.0 0.00 0.00 0.00 65 1010.6
20260905224819 77 180 0.0 2.0 0.00 0.00 0.00 65 1010.5
20260905224331 77 180 0.0 3.0 0.00 0.00 0.00 65 1010.6
20260905223842 77 180 1.0 3.0 0.00 0.00 0.00 65 1010.5
20260905223332 77 155 2.0 3.0 0.00 0.00 0.00 65 1010.5
20260905222823 77 123 2.0 4.0 0.00 0.00 0.00 65 1010.5
20260905222315 77 130 2.0 4.0 0.00 0.00 0.00 65 1010.4
20260905221846 77 103 1.0 3.0 0.00 0.00 0.00 65 1010.3
20260905221318 77 147 2.0 4.0 0.00 0.00 0.00 65 1010.3
20260905220833 78 80 1.0 4.0 0.00 0.00 0.00 63 1010.3
20260905220343 78 126 2.0 6.0 0.00 0.00 0.00 64 1010.4
20260905215818 78 97 2.0 6.0 0.00 0.00 0.00 63 1010.3
20260905215350 79 133 4.0 5.0 0.00 0.00 0.00 60 1010.3
20260905214824 81 88 3.0 5.0 0.00 0.00 0.00 58 1010.2
20260905214336 81 101 2.0 6.0 0.00 0.00 0.00 54 1010.2
20260905213827 82 61 3.0 6.0 0.00 0.00 0.00 55 1010.1
20260905213341 81 65 2.0 6.0 0.00 0.00 0.00 55 1010.1
20260905212815 81 46 3.0 5.0 0.00 0.00 0.00 57 1010.2
20260905212346 81 96 1.0 4.0 0.00 0.00 0.00 55 1010.2
20260905211816 80 117 1.0 4.0 0.00 0.00 0.00 58 1010.1
20260905211328 80 107 1.0 4.0 0.00 0.00 0.00 59 1010.0
20260905210823 80 129 2.0 4.0 0.00 0.00 0.00 60 1010.0
20260905210318 79 76 1.0 4.0 0.00 0.00 0.00 60 1010.0
20260905205833 79 79 2.0 4.0 0.00 0.00 0.00 59 1010.0
20260905205324 79 112 1.0 5.0 0.00 0.00 0.00 59 1010.1
20260905204818 80 53 1.0 5.0 0.00 0.00 0.00 57 1010.1
20260905204349 81 76 2.0 5.0 0.00 0.00 0.00 55 1010.1
20260905203819 81 130 1.0 4.0 0.00 0.00 0.00 55 1010.1
20260905203314 81 117 1.0 4.0 0.00 0.00 0.00 56 1010.1
20260905202829 80 103 2.0 4.0 0.00 0.00 0.00 56 1010.1
20260905202324 79 111 1.0 4.0 0.00 0.00 0.00 57 1010.1
20260905201816 78 131 1.0 5.0 0.00 0.00 0.00 59 1010.1
20260905201328 78 123 2.0 5.0 0.00 0.00 0.00 59 1010.1
20260905200818 78 52 1.0 4.0 0.00 0.00 0.00 61 1010.2
20260905200330 79 53 2.0 7.0 0.00 0.00 0.00 61 1010.1
20260905195820 79 53 2.0 7.0 0.00 0.00 0.00 60 1010.1
20260905195332 80 141 2.0 5.0 0.00 0.00 0.00 60 1010.2
20260905194824 81 38 2.0 7.0 0.00 0.00 0.00 58 1010.2
20260905194318 82 78 4.0 8.0 0.00 0.00 0.00 56 1010.2
20260905193853 82 57 3.0 8.0 0.00 0.00 0.00 57 1010.2
20260905193323 82 78 3.0 6.0 0.00 0.00 0.00 57 1010.2
20260905192834 82 82 3.0 8.0 0.00 0.00 0.00 58 1010.3
20260905192326 81 92 3.0 8.0 0.00 0.00 0.00 57 1010.3
20260905191817 81 65 3.0 7.0 0.00 0.00 0.00 57 1010.3
20260905191329 80 69 3.0 6.0 0.00 0.00 0.00 59 1010.3
20260905190840 79 196 1.0 7.0 0.00 0.00 0.00 63 1010.3
20260905190351 79 33 4.0 8.0 0.00 0.00 0.00 61 1010.4
20260905185821 78 59 2.0 8.0 0.00 0.00 0.00 60 1010.4
20260905185339 79 46 3.0 9.0 0.00 0.00 0.00 59 1010.4
20260905184830 79 52 6.0 9.0 0.00 0.00 0.00 58 1010.4
20260905184320 79 46 3.0 9.0 0.00 0.00 0.00 58 1010.4
20260905183832 79 13 3.0 9.0 0.00 0.00 0.00 57 1010.5
20260905182815 79 106 2.0 10.0 0.00 0.00 0.00 59 1010.5
20260905182325 80 63 4.0 10.0 0.00 0.00 0.00 59 1010.5
20260905181818 81 20 3.0 8.0 0.00 0.00 0.00 56 1010.5
20260905181329 81 36 6.0 9.0 0.00 0.00 0.00 54 1010.5
20260905180845 82 88 2.0 9.0 0.00 0.00 0.00 56 1010.4
20260905180315 82 25 5.0 9.0 0.00 0.00 0.00 56 1010.4
20260905175827 82 122 2.0 9.0 0.00 0.00 0.00 57 1010.5
20260905175318 81 80 4.0 9.0 0.00 0.00 0.00 59 1010.6
20260905174830 81 94 3.0 7.0 0.00 0.00 0.00 60 1010.6
20260905174321 79 42 2.0 8.0 0.00 0.00 0.00 62 1010.5
20260905173815 79 84 4.0 10.0 0.00 0.00 0.00 61 1010.5
20260905173326 80 51 4.0 10.0 0.00 0.00 0.00 60 1010.4
20260905172822 81 87 3.0 9.0 0.00 0.00 0.00 60 1010.4
20260905172333 81 65 4.0 7.0 0.00 0.00 0.00 59 1010.4
20260905171824 80 63 3.0 8.0 0.00 0.00 0.00 60 1010.5
20260905171315 79 57 2.0 8.0 0.00 0.00 0.00 65 1010.6
20260905170847 78 22 2.0 7.0 0.00 0.00 0.00 65 1010.6
20260905170316 78 80 3.0 10.0 0.00 0.00 0.00 64 1010.7
20260905165828 78 70 2.0 10.0 0.00 0.00 0.00 63 1010.7
20260905165320 78 27 2.0 7.0 0.00 0.00 0.00 64 1010.8
20260905164850 78 104 2.0 8.0 0.00 0.00 0.00 63 1010.8
20260905164321 78 105 2.0 9.0 0.00 0.00 0.00 62 1010.9
20260905163836 79 66 2.0 8.0 0.00 0.00 0.00 61 1010.9
20260905163326 79 87 2.0 8.0 0.00 0.00 0.00 61 1010.9
20260905162820 79 55 3.0 7.0 0.00 0.00 0.00 62 1010.9
20260905161843 80 121 4.0 11.0 0.00 0.00 0.00 60 1010.8
20260905161333 81 116 3.0 11.0 0.00 0.00 0.00 60 1010.8
20260905160844 81 63 5.0 9.0 0.00 0.00 0.00 60 1010.8
20260905160315 81 126 2.0 8.0 0.00 0.00 0.00 61 1010.8
20260905155827 81 111 1.0 8.0 0.00 0.00 0.00 60 1011.0
20260905155318 81 60 2.0 7.0 0.00 0.00 0.00 59 1011.0
20260905154814 81 338 4.0 8.0 0.00 0.00 0.00 57 1010.9
20260905154326 81 122 3.0 11.0 0.00 0.00 0.00 58 1010.9
20260905153817 82 63 3.0 12.0 0.00 0.00 0.00 57 1010.7
20260905153329 83 86 3.0 7.0 0.00 0.00 0.00 56 1010.6
20260905152841 83 101 2.0 9.0 0.00 0.00 0.00 57 1010.7
20260905152331 83 55 4.0 9.0 0.00 0.00 0.00 54 1010.6
20260905151846 83 61 3.0 6.0 0.00 0.00 0.00 55 1010.7
20260905151316 82 15 3.0 6.0 0.00 0.00 0.00 55 1010.7
20260905150851 82 306 2.0 5.0 0.00 0.00 0.00 56 1010.7
20260905150321 82 20 3.0 5.0 0.00 0.00 0.00 53 1010.8
20260905145816 82 232 2.0 8.0 0.00 0.00 0.00 53 1010.8
20260905145331 81 317 2.0 9.0 0.00 0.00 0.00 55 1010.8
20260905144822 81 331 5.0 9.0 0.00 0.00 0.00 55 1010.7
20260905144316 81 286 3.0 7.0 0.00 0.00 0.00 56 1010.7
20260905143828 80 36 2.0 7.0 0.00 0.00 0.00 56 1010.5
20260905143321 80 74 1.0 6.0 0.00 0.00 0.00 58 1010.5
20260905142833 80 327 3.0 6.0 0.00 0.00 0.00 58 1010.4
20260905142325 79 328 4.0 6.0 0.00 0.00 0.00 58 1010.5
20260905141821 79 296 3.0 6.0 0.00 0.00 0.00 60 1010.5
20260905141332 79 330 3.0 6.0 0.00 0.00 0.00 61 1010.5
20260905140843 78 346 2.0 7.0 0.00 0.00 0.00 62 1010.4
20260905140334 78 344 2.0 7.0 0.00 0.00 0.00 62 1010.5
20260905135826 78 336 2.0 7.0 0.00 0.00 0.00 63 1010.5
20260905135317 77 325 2.0 7.0 0.00 0.00 0.00 63 1010.5
20260905134829 77 355 2.0 7.0 0.00 0.00 0.00 65 1010.6
20260905134320 77 5 4.0 7.0 0.00 0.00 0.00 64 1010.5
20260905133816 76 10 4.0 7.0 0.00 0.00 0.00 65 1010.5
20260905133327 76 325 4.0 7.0 0.00 0.00 0.00 66 1010.5
20260905132818 76 327 3.0 6.0 0.00 0.00 0.00 67 1010.5
20260905132330 75 9 4.0 6.0 0.00 0.00 0.00 68 1010.6
20260905131821 75 350 2.0 6.0 0.00 0.00 0.00 68 1010.6
20260905131331 75 355 1.0 8.0 0.00 0.00 0.00 68 1010.6
20260905130823 74 327 2.0 8.0 0.00 0.00 0.00 69 1010.6
20260905130334 74 329 3.0 7.0 0.00 0.00 0.00 69 1010.7
20260905125826 74 15 4.0 7.0 0.00 0.00 0.00 70 1010.7
20260905125337 74 345 4.0 7.0 0.00 0.00 0.00 70 1010.8
20260905124832 73 327 3.0 7.0 0.00 0.00 0.00 71 1010.9
20260905124323 73 355 3.0 8.0 0.00 0.00 0.00 71 1010.9
20260905123815 73 5 4.0 9.0 0.00 0.00 0.00 72 1010.9
20260905123326 73 300 4.0 9.0 0.00 0.00 0.00 72 1011.0
20260905122817 72 43 4.0 9.0 0.00 0.00 0.00 72 1011.1
20260905122349 72 344 4.0 9.0 0.00 0.00 0.00 73 1011.1
20260905121822 72 339 5.0 9.0 0.00 0.00 0.00 72 1011.1
20260905120827 72 342 3.0 6.0 0.00 0.00 0.00 73 1011.0
20260905120323 72 355 3.0 6.0 0.00 0.00 0.00 73 1010.9
20260905115818 72 348 2.0 4.0 0.00 0.00 0.00 74 1010.9
20260905115329 72 340 2.0 6.0 0.00 0.00 0.00 74 1010.9
20260905114844 72 337 1.0 6.0 0.00 0.00 0.00 74 1010.8
20260905114334 72 17 2.0 5.0 0.00 0.00 0.00 74 1010.9
20260905113826 72 336 2.0 5.0 0.00 0.00 0.00 74 1010.8
20260905113317 72 298 2.0 6.0 0.00 0.00 0.00 74 1010.8
20260905112848 72 304 3.0 6.0 0.00 0.00 0.00 74 1010.7